Lafayette, IN

5:30 PM EDT on August 18, 2017 (GMT -0400)
Purdue Univ

Weather History for KLAF - June, 2012

Change the Weather History Date:

Thursday, June 14, 2012

  Actual Average Record
Temperature  
Mean Temperature 71 °F 71 °F  
Max Temperature 87 °F 83 °F 95 °F (1988)
Min Temperature 55 °F 60 °F 45 °F (1978)
Degree Days  
Heating Degree Days 0 1  
Month to date heating degree days 20 18  
Since 1 June heating degree days 20 18  
Since 1 July heating degree days 4399 5668  
Cooling Degree Days 6 7  
Month to date cooling degree days 52 78  
Year to date cooling degree days 248 155  
Since 1 June cooling degree days 52 78  
Growing Degree Days 20 (Base 50)    
Moisture  
Dew Point 41 °F    
Average Humidity 39    
Maximum Humidity 61    
Minimum Humidity 16    
Precipitation  
Precipitation 0.00 in 0.14 in 2.11 in (1974)
Month to date precipitation 0.07 1.98  
Year to date precipitation 10.82 16.00  
Sea Level Pressure  
Sea Level Pressure 30.09 in    
Wind  
Wind Speed 7 mph (ESE)    
Max Wind Speed 14 mph    
Max Gust Speed 24 mph    
Visibility 10 miles    
Events      
T = Trace of Precipitation, MM = Missing Value Source: NWS Daily Summary

Daily Weather History Graph

Daily Weather History Graph

Search for Another Location

Airport or City:

Trip Planner

Search our weather history database for the weather conditions in past years. The results will help you decide how hot, cold, wet, or windy it might be!

Date:

Astronomy

Jun. 14, 2012 Rise Set
Actual Time 6:16 AM EDT 9:19 PM EDT
Civil Twilight 5:43 AM EDT 9:52 PM EDT
Nautical Twilight 5:01 AM EDT 10:34 PM EDT
Astronomical Twilight 4:12 AM EDT 11:24 PM EDT
Moon 2:59 AM EDT (6/14) 5:02 PM EDT (6/14)
Length of Visible Light 16h 08m
Length of Day
15h 02m
Waning Crescent, 21% of the Moon is Illuminated
Jun 14
Waning Crescent
Jun 19
New
Jun 26
First Quarter
Jul 3
Full
Jul 10
Last Quarter

Hourly Weather History & Observations

Time (EDT) Temp. Dew Point Humidity Pressure Visibility Wind Dir Wind Speed Gust Speed Precip Events Conditions
12:54 AM 60.1 °F 39.0 °F 46% 30.07 in 10.0 mi ESE 4.6 mph - N/A   Clear
1:54 AM 59.0 °F 39.0 °F 48% 30.08 in 10.0 mi East 5.8 mph - N/A   Clear
2:54 AM 59.0 °F 39.9 °F 49% 30.09 in 10.0 mi East 5.8 mph - N/A   Clear
3:54 AM 57.0 °F 42.1 °F 57% 30.10 in 10.0 mi East 6.9 mph - N/A   Clear
4:54 AM 57.0 °F 42.1 °F 57% 30.11 in 10.0 mi East 6.9 mph - N/A   Clear
5:54 AM 57.0 °F 42.1 °F 57% 30.12 in 10.0 mi East 5.8 mph - N/A   Clear
6:54 AM 55.9 °F 43.0 °F 62% 30.14 in 10.0 mi East 5.8 mph - N/A   Clear
7:54 AM 59.0 °F 43.0 °F 55% 30.15 in 10.0 mi East 5.8 mph - N/A   Clear
8:54 AM 64.0 °F 43.0 °F 46% 30.14 in 10.0 mi ESE 8.1 mph - N/A   Clear
9:54 AM 70.0 °F 43.0 °F 38% 30.14 in 10.0 mi SE 5.8 mph - N/A   Clear
10:54 AM 75.0 °F 43.0 °F 32% 30.13 in 10.0 mi South 8.1 mph - N/A   Clear
11:54 AM 79.0 °F 42.1 °F 27% 30.13 in 10.0 mi SSE 8.1 mph - N/A   Clear
12:54 PM 80.1 °F 42.1 °F 26% 30.11 in 10.0 mi SE 8.1 mph 17.3 mph N/A   Clear
1:54 PM 84.0 °F 39.9 °F 21% 30.09 in 10.0 mi SE 9.2 mph - N/A   Clear
2:54 PM 84.0 °F 37.9 °F 19% 30.09 in 10.0 mi SSE 11.5 mph - N/A   Clear
3:54 PM 84.9 °F 35.1 °F 17% 30.09 in 10.0 mi SSE 10.4 mph - N/A   Clear
4:54 PM 86.0 °F 35.1 °F 16% 30.08 in 10.0 mi SE 9.2 mph 16.1 mph N/A   Clear
5:54 PM 86.0 °F 35.1 °F 16% 30.06 in 10.0 mi ESE 9.2 mph - N/A   Clear
6:54 PM 84.9 °F 35.1 °F 17% 30.05 in 10.0 mi ESE 10.4 mph - N/A   Clear
7:54 PM 82.0 °F 37.9 °F 21% 30.04 in 10.0 mi SE 6.9 mph - N/A   Clear
8:54 PM 73.9 °F 42.1 °F 32% 30.04 in 10.0 mi SE 3.5 mph - N/A   Clear
9:54 PM 72.0 °F 44.1 °F 37% 30.03 in 10.0 mi SE 3.5 mph - N/A   Clear
10:54 PM 69.1 °F 45.0 °F 42% 30.03 in 10.0 mi ESE 4.6 mph - N/A   Clear
11:54 PM 66.0 °F 45.0 °F 47% 30.04 in 10.0 mi ESE 5.8 mph - N/A   Clear